Weather History for KRRT - July, 2013

Change the Weather History Date:

Friday, July 12, 2013

  Actual Average Record
Temperature  
Mean Temperature 75 °F -  
Max Temperature 82 °F 78 °F 93 °F (1969)
Min Temperature 68 °F 58 °F 46 °F (2010)
Cooling Degree Days 10    
Growing Degree Days 25 (Base 50)    
Moisture  
Dew Point 68 °F    
Average Humidity 79    
Maximum Humidity 94    
Minimum Humidity 70    
Precipitation  
Precipitation 0.60 in - - ()
Sea Level Pressure  
Sea Level Pressure 29.78 in    
Wind  
Wind Speed 8 mph (SSW)    
Max Wind Speed 16 mph    
Max Gust Speed 22 mph    
Visibility 8 miles    
Events Fog , Rain , Thunderstorm    
Averages and records for this station are not official NWS values.
T = Trace of Precipitation, MM = Missing Value Source: NWS Daily Summary

Daily Weather History Graph

Daily Weather History Graph

Search for Another Location

Airport or City:

Trip Planner

Search our weather history database for the weather conditions in past years. The results will help you decide how hot, cold, wet, or windy it might be!

Date:

Astronomy

Jul. 12, 2013 Rise Set
Actual Time 5:30 AM CDT 9:22 PM CDT
Civil Twilight 4:49 AM CDT 10:03 PM CDT
Nautical Twilight 3:53 AM CDT 10:59 PM CDT
Astronomical Twilight 2:23 AM CDT 12:26 AM CDT
Moon 10:15 AM CDT (7/12) 11:03 PM CDT (7/12)
Length of Visible Light 17h 13m
Length of Day
15h 51m
Waxing Crescent, 17% of the Moon is Illuminated
Jul 12
Waxing Crescent
Jul 15
First Quarter
Jul 22
Full
Jul 29
Last Quarter
Aug 6
New

Hourly Weather History & Observations

Time (CDT) Temp. Heat Index Dew Point Humidity Pressure Visibility Wind Dir Wind Speed Gust Speed Precip Events Conditions
12:14 AM 71.6 °F - 64.4 °F 78% 29.82 in 10.0 mi South 6.9 mph - N/A   Clear
12:34 AM 71.6 °F - 64.4 °F 78% 29.81 in 10.0 mi South 8.1 mph - N/A   Clear
12:54 AM 73.4 °F - 64.4 °F 73% 29.82 in 10.0 mi South 9.2 mph - N/A   Clear
1:14 AM 73.4 °F - 64.4 °F 73% 29.83 in 10.0 mi South 6.9 mph - N/A   Clear
1:34 AM 73.4 °F - 64.4 °F 73% 29.82 in 10.0 mi South 8.1 mph - N/A   Clear
1:54 AM 73.4 °F - 64.4 °F 73% 29.81 in 10.0 mi South 10.4 mph - N/A   Clear
2:14 AM 73.4 °F - 64.4 °F 73% 29.80 in 10.0 mi South 9.2 mph - N/A   Clear
2:34 AM 73.4 °F - 64.4 °F 73% 29.80 in 10.0 mi South 6.9 mph - N/A   Clear
2:54 AM 73.4 °F - 64.4 °F 73% 29.80 in 10.0 mi South 8.1 mph - N/A   Clear
3:14 AM 73.4 °F - 64.4 °F 73% 29.80 in 10.0 mi South 8.1 mph - N/A   Clear
3:34 AM 71.6 °F - 64.4 °F 78% 29.79 in 10.0 mi South 10.4 mph - N/A   Clear
3:54 AM 73.4 °F - 64.4 °F 73% 29.78 in 10.0 mi South 9.2 mph - N/A   Clear
4:14 AM 73.4 °F - 64.4 °F 73% 29.79 in 10.0 mi South 8.1 mph - N/A   Clear
4:34 AM 73.4 °F - 64.4 °F 73% 29.79 in 10.0 mi South 9.2 mph - N/A   Clear
4:54 AM 73.4 °F - 64.4 °F 73% 29.79 in 10.0 mi South 6.9 mph - N/A   Clear
5:14 AM 73.4 °F - 64.4 °F 73% 29.78 in 10.0 mi South 9.2 mph - N/A   Clear
5:34 AM 71.6 °F - 64.4 °F 78% 29.78 in 10.0 mi South 8.1 mph - N/A   Clear
5:54 AM 73.4 °F - 64.4 °F 73% 29.78 in 10.0 mi South 9.2 mph - N/A   Clear
6:14 AM 73.4 °F - 64.4 °F 73% 29.77 in 10.0 mi SSE 11.5 mph - N/A   Clear
6:34 AM 73.4 °F - 64.4 °F 73% 29.78 in 10.0 mi SSW 8.1 mph - N/A   Clear
6:54 AM 73.4 °F - 64.4 °F 73% 29.77 in 10.0 mi South 12.7 mph 17.3 mph N/A   Clear
7:14 AM 73.4 °F - 64.4 °F 73% 29.77 in 10.0 mi South 6.9 mph 16.1 mph N/A   Clear
7:34 AM 73.4 °F - 64.4 °F 73% 29.76 in 10.0 mi South 8.1 mph - N/A   Clear
7:54 AM 73.4 °F - 66.2 °F 78% 29.78 in 10.0 mi SSW 6.9 mph - N/A   Clear
8:14 AM 73.4 °F - 66.2 °F 78% 29.76 in 10.0 mi South 9.2 mph 17.3 mph N/A   Clear
8:33 AM 73.4 °F - 66.2 °F 78% 29.76 in 10.0 mi South 10.4 mph 18.4 mph N/A   Clear
8:54 AM 73.4 °F - 66.2 °F 78% 29.75 in 10.0 mi South 11.5 mph 17.3 mph N/A   Clear
9:14 AM 75.2 °F - 66.2 °F 73% 29.75 in 10.0 mi South 12.7 mph 18.4 mph N/A   Clear
9:34 AM 75.2 °F - 66.2 °F 73% 29.74 in 10.0 mi South 8.1 mph - N/A   Scattered Clouds
9:54 AM 77.0 °F - 68.0 °F 74% 29.74 in 10.0 mi South 10.4 mph 16.1 mph N/A   Clear
10:14 AM 77.0 °F - 68.0 °F 74% 29.75 in 10.0 mi SSW 11.5 mph 21.9 mph N/A   Clear
10:34 AM 78.8 °F - 69.8 °F 74% 29.76 in 10.0 mi South 9.2 mph 20.7 mph N/A   Clear
10:54 AM 78.8 °F - 69.8 °F 74% 29.75 in 10.0 mi South 15.0 mph 20.7 mph N/A   Clear
11:14 AM 80.6 °F 83.9 °F 69.8 °F 70% 29.74 in 10.0 mi South 10.4 mph 20.7 mph N/A   Clear
11:34 AM 80.6 °F 83.9 °F 69.8 °F 70% 29.74 in 10.0 mi SSW 13.8 mph 21.9 mph N/A   Clear
11:54 AM 80.6 °F 83.9 °F 69.8 °F 70% 29.74 in 10.0 mi SSW 16.1 mph 19.6 mph N/A   Clear
12:14 PM 80.6 °F 83.9 °F 69.8 °F 70% 29.74 in 7.0 mi SSW 11.5 mph - N/A   Clear
12:34 PM 80.6 °F 84.6 °F 71.6 °F 74% 29.75 in 10.0 mi SSW 9.2 mph - N/A   Clear
12:54 PM 82.4 °F 87.2 °F 71.6 °F 70% 29.75 in 10.0 mi SW 10.4 mph 17.3 mph N/A   Clear
1:14 PM 82.4 °F 87.2 °F 71.6 °F 70% 29.76 in 10.0 mi SSW 12.7 mph - N/A   Mostly Cloudy
1:34 PM 80.6 °F 84.6 °F 71.6 °F 74% 29.76 in 10.0 mi SW 11.5 mph - N/A   Overcast
1:54 PM 80.6 °F 84.6 °F 71.6 °F 74% 29.75 in 10.0 mi SW 9.2 mph - N/A   Overcast
2:14 PM 80.6 °F 84.6 °F 71.6 °F 74% 29.75 in 10.0 mi SSW 6.9 mph - N/A   Overcast
2:34 PM 80.6 °F 84.6 °F 71.6 °F 74% 29.75 in 10.0 mi SW 6.9 mph - N/A   Overcast
2:54 PM 80.6 °F 85.4 °F 73.4 °F 79% 29.76 in 10.0 mi WSW 5.8 mph - N/A   Overcast
3:14 PM 80.6 °F 84.6 °F 71.6 °F 74% 29.77 in 10.0 mi West 6.9 mph - N/A   Overcast
3:34 PM 78.8 °F - 71.6 °F 78% 29.78 in 10.0 mi West 5.8 mph - N/A   Overcast
3:54 PM 78.8 °F - 71.6 °F 78% 29.77 in 10.0 mi Calm Calm - N/A   Overcast
4:14 PM 78.8 °F - 71.6 °F 78% 29.77 in 10.0 mi WNW 4.6 mph - N/A   Overcast
4:34 PM 78.8 °F - 71.6 °F 78% 29.78 in 10.0 mi West 5.8 mph - N/A Thunderstorm Overcast
4:54 PM 75.2 °F - 71.6 °F 89% 29.80 in 7.0 mi WNW 5.8 mph - N/A Rain , Thunderstorm Light Thunderstorms and Rain
5:14 PM 75.2 °F - 71.6 °F 89% 29.82 in 4.0 mi WNW 12.7 mph 18.4 mph 0.10 in Rain , Thunderstorm Heavy Thunderstorms and Rain
5:34 PM 73.4 °F - 69.8 °F 88% 29.81 in 7.0 mi WSW 4.6 mph 9.2 mph 0.57 in Rain Light Rain
5:54 PM 71.6 °F - 66.2 °F 83% 29.79 in 7.0 mi Calm Calm - 0.58 in Rain Light Rain
6:14 PM 71.6 °F - 68.0 °F 88% 29.79 in 7.0 mi Calm Calm - 0.02 in Rain , Thunderstorm Rain
6:34 PM 71.6 °F - 69.8 °F 94% 29.76 in 5.0 mi SE 4.6 mph - 0.02 in Rain , Thunderstorm Light Thunderstorms and Rain
6:54 PM 71.6 °F - 68.0 °F 88% 29.78 in 5.0 mi Calm Calm - 0.02 in   Scattered Clouds
7:14 PM 71.6 °F - 68.0 °F 88% 29.78 in 5.0 mi Calm Calm - N/A Rain Light Rain
7:34 PM 71.6 °F - 68.0 °F 88% 29.78 in 7.0 mi Calm Calm - N/A   Clear
7:54 PM 71.6 °F - 69.8 °F 94% 29.78 in 5.0 mi NW 3.5 mph - N/A   Clear
8:14 PM 73.4 °F - 69.8 °F 88% 29.78 in 5.0 mi Calm Calm - N/A   Clear
8:34 PM 73.4 °F - 69.8 °F 88% 29.78 in 4.0 mi Calm Calm - N/A   Clear
8:54 PM 73.4 °F - 69.8 °F 88% 29.78 in 5.0 mi Calm Calm - N/A   Scattered Clouds
9:14 PM 73.4 °F - 69.8 °F 88% 29.79 in 4.0 mi Calm Calm - N/A   Scattered Clouds
9:34 PM 71.6 °F - 69.8 °F 94% 29.80 in 2.0 mi Calm Calm - N/A   Overcast
9:54 PM 71.6 °F - 68.0 °F 88% 29.81 in 0.2 mi Calm Calm - N/A Fog Fog
10:14 PM 69.8 °F - 66.2 °F 88% 29.82 in 0.2 mi Calm Calm - N/A Fog Fog
10:34 PM 69.8 °F - 64.4 °F 83% 29.82 in 0.2 mi Calm Calm - N/A Fog Fog
10:54 PM 69.8 °F - 66.2 °F 88% 29.82 in 0.2 mi Calm Calm - N/A Fog Fog
11:14 PM 68.0 °F - 64.4 °F 88% 29.83 in 0.2 mi Calm Calm - N/A Fog Fog
11:34 PM 68.0 °F - 64.4 °F 88% 29.84 in 0.2 mi Calm Calm - N/A Fog Fog
11:54 PM 68.0 °F - 64.4 °F 88% 29.85 in 0.2 mi Calm Calm - N/A Fog Fog